Location: The Saddle
(36.8333°N, 80.3417°W)
Time: 22:57:12
(UTC-04:00)

SEEDS - Visible Passes

Search period start: 28 March 2023 00:00
Search period end: 07 April 2023 00:00
Orbit: 573 x 588 km, 97.7° (Epoch: 28 March)

Date Brightness Start Highest point End Pass type
(mag) Time Alt. Az. Time Alt. Az. Time Alt. Az.
28 Mar ? 04:59:29 10° NNE 05:03:32 50° E 05:04:06 46° SE visible
28 Mar ? 06:36:43 10° NW 06:38:24 12° WNW 06:40:05 10° W visible
29 Mar ? 05:04:32 10° NNE 05:08:39 58° E 05:09:25 49° SE visible
29 Mar ? 06:42:32 10° NW 06:43:27 11° WNW 06:44:21 10° WNW visible
30 Mar ? 05:09:35 10° NNE 05:13:45 68° E 05:14:43 49° SSE visible
31 Mar ? 05:14:38 10° NNE 05:18:49 79° ESE 05:20:00 46° S visible
01 Apr ? 05:19:41 10° NNE 05:23:52 89° WSW 05:25:14 42° SSW visible
02 Apr ? 05:24:43 10° N 05:28:54 78° WNW 05:30:29 37° SSW visible
03 Apr ? 05:29:46 10° N 05:33:54 67° WNW 05:35:42 32° SSW visible
04 Apr ? 05:34:47 10° N 05:38:53 58° WNW 05:40:54 28° SW visible
05 Apr ? 04:07:04 10° ENE 04:08:16 11° E 04:09:29 10° ESE visible
05 Apr ? 05:39:49 10° N 05:43:51 50° WNW 05:46:04 24° SW visible
06 Apr ? 04:11:22 10° ENE 04:13:16 13° E 04:14:53 11° ESE visible
06 Apr ? 05:44:50 10° N 05:48:47 43° WNW 05:51:14 21° SW visible
